SWA1873 KMCO-TNCM

Flight info

Callsign SWA1873
Flight time 2h 35m
Altitude 39000
Route DDANY3 BORRD DCT ZFP DCT RENAH Y355 SLUGO
Aircraft B737/M-SADE2E3GIJ4RWZ/LB1D1

Departure

Time 2026-05-07 09:38
Airport Orlando International Airport (KMCO)

Arrival

Time 2026-05-07 12:14
Airport Princess Juliana International Airport (TNCM)
Time Latitude Longitude Altitude Speed Heading
2026-05-07 09:03 28.43508 -81.30047 94 ft 0 kts 257°
2026-05-07 09:31 28.43508 -81.30046 94 ft 1 kts 257°
2026-05-07 09:31 28.43513 -81.30019 94 ft 4 kts 261°
2026-05-07 09:32 28.43517 -81.29989 94 ft 4 kts 264°
2026-05-07 09:32 28.43519 -81.29958 94 ft 4 kts 264°
2026-05-07 09:32 28.43521 -81.29935 92 ft 4 kts 271°
2026-05-07 09:32 28.43517 -81.29905 93 ft 4 kts 298°
2026-05-07 09:33 28.43500 -81.29887 93 ft 3 kts 354°
2026-05-07 09:33 28.43497 -81.29886 93 ft 1 kts 359°
2026-05-07 09:36 28.43502 -81.29886 93 ft 3 kts 359°
2026-05-07 09:36 28.43535 -81.29881 93 ft 7 kts 30°
2026-05-07 09:36 28.43549 -81.29809 94 ft 12 kts 89°
2026-05-07 09:36 28.43549 -81.29703 95 ft 14 kts 89°
2026-05-07 09:37 28.43547 -81.29607 97 ft 10 kts 103°
2026-05-07 09:37 28.43500 -81.29587 96 ft 9 kts 179°
2026-05-07 09:37 28.43287 -81.29585 98 ft 64 kts 179°
2026-05-07 09:37 28.42606 -81.29578 94 ft 129 kts 179°
2026-05-07 09:38 28.41546 -81.29570 205 ft 168 kts 179°
2026-05-07 09:38 28.40394 -81.29558 988 ft 162 kts 179°
2026-05-07 09:38 28.39294 -81.29525 1701 ft 164 kts 179°
2026-05-07 09:38 28.38125 -81.29125 1949 ft 194 kts 151°
2026-05-07 09:39 28.36901 -81.28255 2176 ft 220 kts 150°
2026-05-07 09:39 28.35541 -81.27280 2440 ft 244 kts 149°
2026-05-07 09:39 28.34086 -81.26146 2871 ft 260 kts 142°
2026-05-07 09:39 28.32745 -81.24720 3549 ft 268 kts 130°
2026-05-07 09:40 28.32021 -81.22774 4301 ft 272 kts 99°
2026-05-07 09:40 28.31785 -81.20651 5167 ft 272 kts 97°
2026-05-07 09:40 28.31565 -81.18506 6095 ft 276 kts 98°
2026-05-07 09:40 28.31342 -81.16326 6813 ft 280 kts 98°
2026-05-07 09:41 28.31106 -81.14108 7688 ft 285 kts 98°
2026-05-07 09:41 28.30862 -81.11865 8591 ft 289 kts 98°
2026-05-07 09:41 28.30610 -81.09576 9440 ft 295 kts 98°
2026-05-07 09:41 28.30351 -81.07243 10248 ft 301 kts 98°
2026-05-07 09:42 28.30076 -81.04802 10573 ft 326 kts 98°
2026-05-07 09:42 28.29779 -81.02190 10813 ft 349 kts 98°
2026-05-07 09:42 28.29463 -80.99407 11384 ft 360 kts 98°
2026-05-07 09:42 28.29141 -80.96574 12113 ft 364 kts 98°
2026-05-07 09:43 28.28815 -80.93710 12870 ft 369 kts 98°
2026-05-07 09:43 28.28484 -80.90806 13589 ft 374 kts 97°
2026-05-07 09:43 28.28143 -80.87860 14226 ft 379 kts 98°
2026-05-07 09:43 28.27561 -80.84927 14823 ft 385 kts 109°
2026-05-07 09:44 28.26580 -80.82082 15433 ft 390 kts 113°
2026-05-07 09:44 28.25506 -80.79232 16040 ft 396 kts 114°
2026-05-07 09:44 28.24424 -80.76337 16640 ft 402 kts 113°
2026-05-07 09:44 28.23347 -80.73380 17235 ft 408 kts 113°
2026-05-07 09:45 28.22225 -80.70409 17824 ft 413 kts 118°
2026-05-07 09:45 28.20658 -80.67661 18367 ft 417 kts 131°
2026-05-07 09:45 28.18648 -80.65290 18893 ft 418 kts 143°
2026-05-07 09:45 28.16291 -80.63347 19449 ft 420 kts 149°
2026-05-07 09:46 28.13845 -80.61512 19972 ft 424 kts 150°
2026-05-07 09:46 28.11357 -80.59672 20460 ft 430 kts 150°
2026-05-07 09:46 28.08846 -80.57803 20957 ft 434 kts 150°
2026-05-07 09:46 28.06351 -80.55922 21452 ft 439 kts 150°
2026-05-07 09:47 28.03807 -80.53986 21947 ft 443 kts 149°
2026-05-07 09:47 28.01235 -80.52018 22432 ft 447 kts 149°
2026-05-07 09:47 27.98645 -80.50034 22899 ft 452 kts 150°
2026-05-07 09:47 27.96029 -80.48032 23364 ft 456 kts 150°
2026-05-07 09:48 27.93388 -80.46013 23780 ft 460 kts 149°
2026-05-07 09:48 27.90852 -80.43763 24165 ft 467 kts 140°
2026-05-07 09:48 27.88571 -80.41125 24587 ft 471 kts 136°
2026-05-07 09:48 27.86340 -80.38388 24998 ft 474 kts 135°
2026-05-07 09:49 27.84120 -80.35621 25376 ft 477 kts 135°
2026-05-07 09:49 27.81889 -80.32840 25749 ft 480 kts 135°
2026-05-07 09:49 27.79659 -80.30082 26132 ft 483 kts 135°
2026-05-07 09:49 27.77379 -80.27284 26514 ft 485 kts 135°
2026-05-07 09:50 27.75083 -80.24483 26893 ft 487 kts 136°
2026-05-07 09:50 27.72770 -80.21672 27255 ft 490 kts 136°
2026-05-07 09:50 27.70442 -80.18851 27603 ft 493 kts 136°
2026-05-07 09:50 27.68098 -80.16014 27947 ft 496 kts 136°
2026-05-07 09:51 27.65738 -80.13162 28285 ft 498 kts 136°
2026-05-07 09:51 27.63365 -80.10294 28624 ft 501 kts 136°
2026-05-07 09:51 27.60984 -80.07418 28938 ft 503 kts 136°
2026-05-07 09:51 27.58585 -80.04522 29247 ft 506 kts 136°
2026-05-07 09:52 27.56212 -80.01657 29548 ft 508 kts 136°
2026-05-07 09:52 27.53762 -79.98702 29852 ft 511 kts 136°
2026-05-07 09:52 27.51361 -79.95807 30139 ft 513 kts 136°
2026-05-07 09:52 27.48919 -79.92865 30392 ft 515 kts 136°
2026-05-07 09:53 27.46468 -79.89914 30669 ft 517 kts 136°
2026-05-07 09:53 27.44009 -79.86957 30949 ft 518 kts 136°
2026-05-07 09:53 27.41543 -79.83993 31217 ft 519 kts 136°
2026-05-07 09:53 27.39075 -79.81031 31520 ft 519 kts 136°
2026-05-07 09:54 27.36613 -79.78074 31912 ft 517 kts 136°
2026-05-07 09:54 27.34159 -79.75131 32345 ft 515 kts 135°
2026-05-07 09:54 27.31713 -79.72197 32770 ft 512 kts 135°
2026-05-07 09:54 27.29279 -79.69280 33163 ft 511 kts 135°
2026-05-07 09:55 27.26869 -79.66395 33542 ft 510 kts 135°
2026-05-07 09:55 27.24423 -79.63470 33934 ft 509 kts 135°
2026-05-07 09:55 27.21999 -79.60574 34289 ft 507 kts 135°
2026-05-07 09:55 27.19586 -79.57692 34592 ft 506 kts 135°
2026-05-07 09:56 27.17171 -79.54808 34854 ft 506 kts 135°
2026-05-07 09:56 27.14758 -79.51932 35110 ft 506 kts 135°
2026-05-07 09:56 27.12342 -79.49052 35392 ft 506 kts 135°
2026-05-07 09:56 27.09931 -79.46180 35672 ft 505 kts 135°
2026-05-07 09:57 27.07526 -79.43317 35946 ft 504 kts 135°
2026-05-07 09:57 27.05118 -79.40451 36189 ft 504 kts 135°
2026-05-07 09:57 27.02717 -79.37596 36437 ft 504 kts 135°
2026-05-07 09:57 27.00312 -79.34739 36701 ft 503 kts 135°
2026-05-07 09:58 26.97913 -79.31891 36938 ft 502 kts 135°
2026-05-07 09:58 26.95515 -79.29046 37187 ft 502 kts 135°
2026-05-07 09:58 26.93120 -79.26206 37418 ft 501 kts 135°
2026-05-07 09:58 26.90726 -79.23368 37631 ft 501 kts 135°
2026-05-07 09:59 26.88334 -79.20535 37833 ft 501 kts 135°
2026-05-07 09:59 26.85939 -79.17702 38057 ft 500 kts 135°
2026-05-07 09:59 26.83581 -79.14915 38289 ft 500 kts 135°
2026-05-07 09:59 26.81192 -79.12092 38506 ft 499 kts 135°
2026-05-07 10:00 26.78803 -79.09271 38700 ft 499 kts 135°
2026-05-07 10:00 26.76417 -79.06454 38869 ft 499 kts 135°
2026-05-07 10:00 26.74028 -79.03637 39032 ft 499 kts 135°
2026-05-07 10:01 26.69237 -78.97991 39040 ft 500 kts 135°
2026-05-07 10:01 26.64460 -78.92368 39038 ft 497 kts 135°
2026-05-07 10:02 26.59718 -78.86793 39040 ft 494 kts 135°
2026-05-07 10:02 26.54993 -78.81245 39043 ft 491 kts 135°
2026-05-07 10:03 26.50956 -78.75101 39050 ft 492 kts 117°
2026-05-07 10:03 26.48329 -78.68058 39052 ft 492 kts 110°
2026-05-07 10:04 26.45925 -78.60948 39039 ft 494 kts 110°
2026-05-07 10:04 26.43458 -78.53762 39056 ft 497 kts 110°
2026-05-07 10:05 26.40937 -78.46560 39059 ft 499 kts 110°
2026-05-07 10:05 26.38386 -78.39339 39045 ft 501 kts 110°
2026-05-07 10:06 26.35823 -78.32101 39054 ft 502 kts 110°
2026-05-07 10:06 26.33253 -78.24849 39046 ft 503 kts 110°
2026-05-07 10:07 26.30683 -78.17607 39049 ft 502 kts 110°
2026-05-07 10:07 26.28111 -78.10372 39047 ft 501 kts 110°
2026-05-07 10:08 26.25544 -78.03166 39045 ft 500 kts 110°
2026-05-07 10:08 26.22983 -77.95989 39051 ft 498 kts 110°
2026-05-07 10:09 26.20423 -77.88827 39047 ft 497 kts 110°
2026-05-07 10:09 26.17883 -77.81734 39049 ft 496 kts 110°
2026-05-07 10:10 26.15327 -77.74610 39053 ft 495 kts 110°
2026-05-07 10:10 26.12770 -77.67496 39051 ft 495 kts 110°
2026-05-07 10:11 26.10209 -77.60382 39057 ft 495 kts 110°
2026-05-07 10:11 26.07641 -77.53265 39046 ft 495 kts 110°
2026-05-07 10:12 26.05071 -77.46151 39055 ft 496 kts 110°
2026-05-07 10:12 26.02495 -77.39035 39059 ft 496 kts 110°
2026-05-07 10:13 25.99927 -77.31956 39059 ft 497 kts 110°
2026-05-07 10:13 25.97338 -77.24828 39049 ft 498 kts 110°
2026-05-07 10:14 25.94741 -77.17694 39053 ft 498 kts 110°
2026-05-07 10:14 25.92139 -77.10556 39051 ft 498 kts 110°
2026-05-07 10:15 25.89534 -77.03424 39054 ft 499 kts 110°
2026-05-07 10:15 25.86920 -76.96282 39054 ft 499 kts 110°
2026-05-07 10:16 25.84306 -76.89149 39050 ft 499 kts 110°
2026-05-07 10:16 25.81688 -76.82021 39052 ft 498 kts 110°
2026-05-07 10:17 25.79086 -76.74949 39060 ft 498 kts 110°
2026-05-07 10:17 25.76464 -76.67834 39050 ft 498 kts 110°
2026-05-07 10:18 25.73843 -76.60733 39051 ft 498 kts 109°
2026-05-07 10:18 25.71661 -76.54831 39048 ft 497 kts 109°
2026-05-07 10:19 25.69034 -76.47738 39058 ft 497 kts 109°
2026-05-07 10:19 25.66404 -76.40648 39056 ft 497 kts 109°
2026-05-07 10:20 25.63771 -76.33563 39055 ft 497 kts 109°
2026-05-07 10:20 25.61134 -76.26480 39054 ft 497 kts 109°
2026-05-07 10:21 25.58493 -76.19398 39054 ft 497 kts 109°
2026-05-07 10:21 25.55849 -76.12321 39055 ft 497 kts 109°
2026-05-07 10:22 25.53200 -76.05242 39058 ft 498 kts 109°
2026-05-07 10:22 25.50547 -75.98164 39055 ft 498 kts 109°
2026-05-07 10:23 25.47886 -75.91078 39062 ft 498 kts 109°
2026-05-07 10:23 25.45222 -75.83996 39056 ft 499 kts 109°
2026-05-07 10:24 25.42552 -75.76910 39063 ft 499 kts 109°
2026-05-07 10:24 25.39876 -75.69820 39057 ft 499 kts 109°
2026-05-07 10:25 25.37198 -75.62737 39060 ft 499 kts 109°
2026-05-07 10:25 25.34513 -75.55648 39055 ft 500 kts 109°
2026-05-07 10:26 25.31824 -75.48561 39060 ft 500 kts 109°
2026-05-07 10:26 25.29147 -75.41518 39060 ft 500 kts 109°
2026-05-07 10:27 25.26452 -75.34438 39060 ft 500 kts 109°
2026-05-07 10:27 25.23751 -75.27355 39055 ft 500 kts 109°
2026-05-07 10:28 25.21045 -75.20270 39066 ft 501 kts 108°
2026-05-07 10:28 25.18333 -75.13182 39058 ft 501 kts 108°
2026-05-07 10:29 25.15621 -75.06106 39063 ft 501 kts 108°
2026-05-07 10:29 25.12902 -74.99026 39064 ft 501 kts 108°
2026-05-07 10:30 25.08816 -74.88405 39063 ft 501 kts 108°
2026-05-07 10:30 25.06088 -74.81327 39052 ft 501 kts 108°
2026-05-07 10:31 25.03355 -74.74250 39059 ft 501 kts 108°
2026-05-07 10:31 25.00618 -74.67175 39061 ft 501 kts 108°
2026-05-07 10:32 24.97876 -74.60099 39056 ft 502 kts 108°
2026-05-07 10:32 24.95135 -74.53037 39061 ft 502 kts 108°
2026-05-07 10:33 24.92388 -74.45969 39054 ft 502 kts 108°
2026-05-07 10:33 24.89639 -74.38910 39067 ft 501 kts 108°
2026-05-07 10:34 24.86885 -74.31851 39057 ft 501 kts 108°
2026-05-07 10:34 24.84129 -74.24796 39060 ft 501 kts 108°
2026-05-07 10:35 24.81372 -74.17750 39063 ft 501 kts 108°
2026-05-07 10:35 24.78629 -74.10751 39060 ft 501 kts 108°
2026-05-07 10:36 24.75864 -74.03710 39064 ft 501 kts 108°
2026-05-07 10:36 24.73100 -73.96681 39064 ft 501 kts 108°
2026-05-07 10:37 24.70331 -73.89650 39061 ft 500 kts 108°
2026-05-07 10:37 24.67560 -73.82627 39061 ft 500 kts 108°
2026-05-07 10:38 24.64789 -73.75613 39064 ft 500 kts 108°
2026-05-07 10:38 24.62035 -73.68655 39062 ft 500 kts 108°
2026-05-07 10:39 24.59259 -73.61650 39065 ft 500 kts 108°
2026-05-07 10:39 24.56444 -73.54662 39058 ft 502 kts 112°
2026-05-07 10:40 24.53015 -73.48110 39065 ft 505 kts 116°
2026-05-07 10:40 24.49363 -73.41517 39074 ft 505 kts 116°
2026-05-07 10:41 24.45731 -73.34912 39068 ft 505 kts 116°
2026-05-07 10:41 24.42131 -73.28292 39066 ft 505 kts 116°
2026-05-07 10:42 24.38540 -73.21668 39066 ft 505 kts 116°
2026-05-07 10:42 24.34943 -73.15043 39066 ft 505 kts 116°
2026-05-07 10:43 24.31348 -73.08435 39066 ft 505 kts 116°
2026-05-07 10:43 24.27771 -73.01872 39065 ft 505 kts 116°
2026-05-07 10:44 24.24147 -72.95231 39066 ft 504 kts 116°
2026-05-07 10:44 24.20567 -72.88680 39065 ft 504 kts 116°
2026-05-07 10:45 24.16960 -72.82088 39067 ft 504 kts 116°
2026-05-07 10:45 24.13350 -72.75500 39067 ft 504 kts 116°
2026-05-07 10:46 24.09743 -72.68925 39067 ft 504 kts 116°
2026-05-07 10:46 24.06134 -72.62356 39068 ft 504 kts 116°
2026-05-07 10:47 24.02525 -72.55794 39072 ft 503 kts 116°
2026-05-07 10:47 23.98910 -72.49231 39063 ft 504 kts 116°
2026-05-07 10:48 23.95296 -72.42678 39071 ft 503 kts 116°
2026-05-07 10:48 23.91680 -72.36129 39072 ft 503 kts 116°
2026-05-07 10:49 23.88060 -72.29583 39073 ft 503 kts 116°
2026-05-07 10:49 23.84441 -72.23045 39071 ft 503 kts 116°
2026-05-07 10:50 23.80817 -72.16504 39071 ft 503 kts 116°
2026-05-07 10:50 23.77219 -72.10019 39075 ft 503 kts 116°
2026-05-07 10:51 23.73594 -72.03492 39072 ft 503 kts 116°
2026-05-07 10:51 23.69967 -71.96972 39072 ft 502 kts 117°
2026-05-07 10:52 23.66338 -71.90453 39069 ft 502 kts 117°
2026-05-07 10:52 23.62708 -71.83939 39070 ft 502 kts 117°
2026-05-07 10:53 23.58894 -71.77539 39076 ft 505 kts 122°
2026-05-07 10:53 23.54636 -71.71435 39078 ft 506 kts 124°
2026-05-07 10:54 23.50372 -71.65451 39073 ft 506 kts 124°
2026-05-07 10:54 23.46094 -71.59357 39074 ft 506 kts 123°
2026-05-07 10:55 23.43970 -71.56306 38923 ft 506 kts 123°
2026-05-07 10:55 23.41856 -71.53264 38987 ft 503 kts 122°
2026-05-07 10:55 23.37691 -71.47242 39060 ft 498 kts 121°
2026-05-07 10:56 23.33540 -71.41218 39062 ft 497 kts 122°
2026-05-07 10:56 23.29341 -71.35251 39076 ft 495 kts 122°
2026-05-07 10:57 23.25171 -71.29309 39075 ft 494 kts 122°
2026-05-07 10:57 23.21014 -71.23365 39075 ft 493 kts 122°
2026-05-07 10:58 23.16862 -71.17428 39076 ft 493 kts 122°
2026-05-07 10:58 23.12702 -71.11488 39074 ft 494 kts 122°
2026-05-07 10:59 23.08539 -71.05552 39078 ft 495 kts 122°
2026-05-07 10:59 23.04392 -70.99645 39079 ft 495 kts 122°
2026-05-07 11:00 23.00206 -70.93691 39076 ft 496 kts 122°
2026-05-07 11:00 22.96011 -70.87728 39074 ft 497 kts 122°
2026-05-07 11:01 22.91806 -70.81760 39077 ft 498 kts 122°
2026-05-07 11:01 22.87588 -70.75788 39074 ft 499 kts 122°
2026-05-07 11:02 22.83366 -70.69819 39078 ft 499 kts 122°
2026-05-07 11:02 22.79137 -70.63845 39079 ft 499 kts 122°
2026-05-07 11:03 22.74912 -70.57881 39086 ft 499 kts 122°
2026-05-07 11:03 22.70680 -70.51914 39080 ft 499 kts 122°
2026-05-07 11:04 22.66476 -70.45993 39079 ft 499 kts 122°
2026-05-07 11:04 22.62248 -70.40046 39085 ft 498 kts 122°
2026-05-07 11:05 22.58018 -70.34102 39090 ft 498 kts 122°
2026-05-07 11:05 22.53786 -70.28161 39087 ft 498 kts 122°
2026-05-07 11:06 22.50266 -70.23226 39085 ft 498 kts 122°
2026-05-07 11:06 22.46034 -70.17298 39085 ft 497 kts 122°
2026-05-07 11:07 22.41803 -70.11378 39081 ft 497 kts 122°
2026-05-07 11:07 22.37578 -70.05472 39083 ft 497 kts 122°
2026-05-07 11:08 22.33348 -69.99565 39080 ft 497 kts 122°
2026-05-07 11:08 22.29100 -69.93681 39081 ft 497 kts 122°
2026-05-07 11:09 22.24832 -69.87823 39081 ft 496 kts 122°
2026-05-07 11:09 22.20579 -69.81951 39084 ft 496 kts 122°
2026-05-07 11:10 22.16350 -69.76071 39083 ft 496 kts 122°
2026-05-07 11:10 22.12148 -69.70228 39079 ft 496 kts 122°
2026-05-07 11:11 22.07913 -69.64354 39088 ft 496 kts 122°
2026-05-07 11:11 22.03680 -69.58491 39086 ft 495 kts 122°
2026-05-07 11:12 21.99445 -69.52634 39082 ft 495 kts 122°
2026-05-07 11:12 21.95230 -69.46774 39075 ft 494 kts 122°
2026-05-07 11:13 21.91002 -69.40949 39078 ft 493 kts 122°
2026-05-07 11:13 21.86769 -69.35133 39088 ft 493 kts 122°
2026-05-07 11:14 21.82540 -69.29313 39088 ft 493 kts 122°
2026-05-07 11:14 21.78311 -69.23496 39088 ft 494 kts 122°
2026-05-07 11:15 21.74072 -69.17669 39088 ft 495 kts 122°
2026-05-07 11:15 21.69826 -69.11841 39087 ft 496 kts 122°
2026-05-07 11:16 21.65570 -69.06011 39086 ft 495 kts 122°
2026-05-07 11:16 21.61315 -69.00179 39090 ft 496 kts 122°
2026-05-07 11:17 21.57054 -68.94341 39093 ft 496 kts 121°
2026-05-07 11:17 21.52792 -68.88503 39086 ft 497 kts 122°
2026-05-07 11:18 21.48545 -68.82706 39095 ft 498 kts 122°
2026-05-07 11:18 21.44255 -68.76863 39087 ft 498 kts 122°
2026-05-07 11:19 21.39969 -68.71027 39091 ft 498 kts 122°
2026-05-07 11:19 21.35677 -68.65186 39090 ft 498 kts 122°
2026-05-07 11:20 21.31387 -68.59352 39089 ft 498 kts 122°
2026-05-07 11:20 21.27094 -68.53520 39088 ft 498 kts 122°
2026-05-07 11:21 21.22804 -68.47699 39090 ft 497 kts 122°
2026-05-07 11:21 21.18539 -68.41917 39096 ft 497 kts 122°
2026-05-07 11:22 21.14250 -68.36109 39088 ft 497 kts 122°
2026-05-07 11:22 21.09959 -68.30304 39084 ft 497 kts 121°
2026-05-07 11:23 21.05669 -68.24507 39091 ft 496 kts 121°
2026-05-07 11:23 21.01378 -68.18714 39087 ft 496 kts 121°
2026-05-07 11:24 20.97088 -68.12928 39089 ft 496 kts 121°
2026-05-07 11:24 20.92799 -68.07148 39089 ft 496 kts 121°
2026-05-07 11:25 20.88510 -68.01374 39089 ft 496 kts 121°
2026-05-07 11:25 20.84254 -67.95627 39085 ft 495 kts 121°
2026-05-07 11:26 20.80024 -67.89814 39087 ft 495 kts 120°
2026-05-07 11:26 20.75805 -67.84001 39088 ft 495 kts 120°
2026-05-07 11:27 20.71578 -67.78196 39087 ft 495 kts 121°
2026-05-07 11:27 20.67351 -67.72404 39090 ft 495 kts 121°
2026-05-07 11:28 20.63113 -67.66605 39087 ft 495 kts 121°
2026-05-07 11:28 20.58874 -67.60811 39089 ft 495 kts 121°
2026-05-07 11:29 20.54636 -67.55023 39090 ft 495 kts 121°
2026-05-07 11:29 20.50400 -67.49243 39088 ft 495 kts 121°
2026-05-07 11:30 20.46159 -67.43462 39089 ft 494 kts 121°
2026-05-07 11:30 20.41919 -67.37685 39091 ft 494 kts 121°
2026-05-07 11:31 20.37677 -67.31916 39087 ft 494 kts 121°
2026-05-07 11:31 20.33464 -67.26191 39090 ft 494 kts 121°
2026-05-07 11:32 20.27101 -67.17551 39085 ft 493 kts 121°
2026-05-07 11:33 20.22866 -67.11805 39084 ft 493 kts 121°
2026-05-07 11:33 20.18630 -67.06065 39082 ft 493 kts 121°
2026-05-07 11:34 20.14392 -67.00327 39082 ft 492 kts 122°
2026-05-07 11:34 20.10159 -66.94602 39085 ft 492 kts 122°
2026-05-07 11:35 20.05929 -66.88885 39084 ft 492 kts 122°
2026-05-07 11:35 20.01700 -66.83174 39083 ft 491 kts 122°
2026-05-07 11:36 19.97801 -66.77282 39083 ft 481 kts 112°
2026-05-07 11:36 19.94684 -66.71013 39082 ft 479 kts 110°
2026-05-07 11:37 19.91646 -66.64759 39085 ft 479 kts 111°
2026-05-07 11:37 19.88552 -66.58489 39086 ft 479 kts 111°
2026-05-07 11:38 19.85428 -66.52237 39086 ft 479 kts 111°
2026-05-07 11:38 19.82295 -66.45994 39085 ft 479 kts 111°
2026-05-07 11:39 19.79160 -66.39750 39085 ft 479 kts 112°
2026-05-07 11:39 19.76024 -66.33507 39086 ft 479 kts 112°
2026-05-07 11:40 19.72890 -66.27274 39083 ft 478 kts 112°
2026-05-07 11:40 19.69755 -66.21044 39086 ft 478 kts 112°
2026-05-07 11:41 19.66623 -66.14829 39084 ft 478 kts 112°
2026-05-07 11:41 19.63509 -66.08654 39087 ft 478 kts 112°
2026-05-07 11:42 19.60373 -66.02444 39086 ft 477 kts 112°
2026-05-07 11:42 19.57240 -65.96244 39090 ft 477 kts 112°
2026-05-07 11:43 19.54107 -65.90054 39089 ft 476 kts 113°
2026-05-07 11:43 19.50971 -65.83863 39093 ft 476 kts 113°
2026-05-07 11:44 19.47858 -65.77723 39092 ft 476 kts 113°
2026-05-07 11:44 19.44726 -65.71552 39091 ft 475 kts 113°
2026-05-07 11:45 19.41594 -65.65389 39090 ft 475 kts 113°
2026-05-07 11:45 19.38464 -65.59234 39089 ft 475 kts 114°
2026-05-07 11:46 19.35329 -65.53077 39090 ft 474 kts 114°
2026-05-07 11:46 19.32199 -65.46933 39091 ft 474 kts 114°
2026-05-07 11:47 19.29064 -65.40789 39089 ft 474 kts 114°
2026-05-07 11:47 19.25920 -65.34639 39092 ft 474 kts 114°
2026-05-07 11:48 19.22778 -65.28496 39090 ft 474 kts 114°
2026-05-07 11:48 19.19635 -65.22356 39090 ft 475 kts 114°
2026-05-07 11:49 19.16505 -65.16246 39088 ft 475 kts 114°
2026-05-07 11:49 19.13356 -65.10105 39091 ft 475 kts 114°
2026-05-07 11:50 19.10200 -65.03958 39089 ft 476 kts 115°
2026-05-07 11:50 19.07043 -64.97816 39090 ft 476 kts 115°
2026-05-07 11:51 19.03880 -64.91667 39083 ft 476 kts 115°
2026-05-07 11:51 19.02287 -64.88569 38549 ft 484 kts 115°
2026-05-07 11:51 19.00675 -64.85438 37919 ft 483 kts 115°
2026-05-07 11:51 18.99072 -64.82328 37259 ft 482 kts 115°
2026-05-07 11:52 18.97467 -64.79217 36612 ft 481 kts 116°
2026-05-07 11:52 18.95873 -64.76129 36060 ft 478 kts 116°
2026-05-07 11:52 18.94273 -64.73031 35313 ft 481 kts 116°
2026-05-07 11:52 18.92668 -64.69920 34552 ft 485 kts 116°
2026-05-07 11:53 18.91043 -64.66773 33673 ft 492 kts 116°
2026-05-07 11:53 18.89398 -64.63590 32743 ft 496 kts 116°
2026-05-07 11:53 18.87739 -64.60383 31911 ft 497 kts 116°
2026-05-07 11:53 18.86088 -64.57196 31308 ft 492 kts 116°
2026-05-07 11:54 18.84453 -64.54042 30667 ft 488 kts 116°
2026-05-07 11:54 18.82829 -64.50910 30025 ft 484 kts 116°
2026-05-07 11:54 18.81219 -64.47804 29312 ft 479 kts 116°
2026-05-07 11:54 18.79650 -64.44780 28659 ft 474 kts 117°
2026-05-07 11:55 18.78078 -64.41748 28023 ft 468 kts 117°
2026-05-07 11:55 18.76522 -64.38750 27392 ft 463 kts 117°
2026-05-07 11:55 18.74978 -64.35778 26779 ft 458 kts 117°
2026-05-07 11:55 18.73456 -64.32846 26168 ft 454 kts 117°
2026-05-07 11:56 18.71942 -64.29934 25543 ft 450 kts 117°
2026-05-07 11:56 18.70444 -64.27053 24917 ft 447 kts 118°
2026-05-07 11:56 18.68951 -64.24181 24293 ft 444 kts 118°
2026-05-07 11:56 18.67968 -64.22292 23880 ft 442 kts 118°
2026-05-07 11:57 18.66503 -64.19479 23174 ft 432 kts 118°
2026-05-07 11:57 18.65078 -64.16745 22531 ft 419 kts 118°
2026-05-07 11:57 18.63695 -64.14093 21937 ft 410 kts 118°
2026-05-07 11:57 18.62322 -64.11460 21356 ft 410 kts 118°
2026-05-07 11:58 18.60948 -64.08826 20782 ft 409 kts 118°
2026-05-07 11:58 18.59582 -64.06208 20196 ft 406 kts 118°
2026-05-07 11:58 18.58220 -64.03600 19590 ft 405 kts 118°
2026-05-07 11:58 18.56867 -64.01009 19003 ft 403 kts 118°
2026-05-07 11:59 18.55518 -63.98425 18400 ft 401 kts 118°
2026-05-07 11:59 18.54179 -63.95863 17729 ft 395 kts 118°
2026-05-07 11:59 18.52873 -63.93366 17122 ft 383 kts 118°
2026-05-07 11:59 18.51603 -63.90940 16563 ft 376 kts 118°
2026-05-07 12:00 18.50337 -63.88521 16021 ft 378 kts 118°
2026-05-07 12:00 18.49088 -63.86134 15462 ft 376 kts 118°
2026-05-07 12:00 18.47826 -63.83723 14877 ft 375 kts 118°
2026-05-07 12:00 18.46567 -63.81319 14302 ft 374 kts 118°
2026-05-07 12:01 18.45320 -63.78941 13698 ft 366 kts 118°
2026-05-07 12:01 18.44091 -63.76596 13107 ft 365 kts 118°
2026-05-07 12:01 18.42871 -63.74268 12536 ft 362 kts 118°
2026-05-07 12:01 18.41659 -63.71957 11967 ft 359 kts 118°
2026-05-07 12:02 18.40456 -63.69667 11407 ft 352 kts 118°
2026-05-07 12:02 18.39301 -63.67472 11068 ft 333 kts 119°
2026-05-07 12:02 18.37873 -63.65589 10571 ft 323 kts 137°
2026-05-07 12:02 18.36278 -63.64047 10535 ft 310 kts 136°
2026-05-07 12:03 18.34719 -63.62517 10184 ft 301 kts 136°
2026-05-07 12:03 18.33223 -63.61039 9860 ft 289 kts 136°
2026-05-07 12:03 18.31773 -63.59602 9546 ft 285 kts 135°
2026-05-07 12:03 18.30337 -63.58177 9244 ft 282 kts 135°
2026-05-07 12:04 18.28913 -63.56762 8930 ft 281 kts 135°
2026-05-07 12:04 18.27500 -63.55358 8643 ft 279 kts 135°
2026-05-07 12:04 18.26094 -63.53960 8342 ft 277 kts 135°
2026-05-07 12:04 18.24694 -63.52566 8037 ft 276 kts 135°
2026-05-07 12:05 18.23299 -63.51180 7747 ft 275 kts 135°
2026-05-07 12:05 18.21911 -63.49803 7454 ft 274 kts 135°
2026-05-07 12:05 18.20530 -63.48434 7161 ft 273 kts 135°
2026-05-07 12:05 18.19154 -63.47067 6879 ft 272 kts 135°
2026-05-07 12:06 18.17801 -63.45723 6590 ft 270 kts 135°
2026-05-07 12:06 18.16448 -63.44383 6283 ft 264 kts 135°
2026-05-07 12:06 18.15115 -63.43062 5953 ft 264 kts 135°
2026-05-07 12:06 18.13776 -63.41732 5616 ft 264 kts 135°
2026-05-07 12:07 18.12444 -63.40410 5333 ft 262 kts 135°
2026-05-07 12:07 18.11122 -63.39099 5065 ft 260 kts 135°
2026-05-07 12:07 18.09807 -63.37793 4764 ft 259 kts 135°
2026-05-07 12:07 18.08496 -63.36493 4468 ft 258 kts 135°
2026-05-07 12:08 18.07195 -63.35205 4193 ft 255 kts 135°
2026-05-07 12:08 18.05935 -63.33956 3912 ft 245 kts 135°
2026-05-07 12:08 18.04713 -63.32744 3702 ft 236 kts 135°
2026-05-07 12:08 18.03542 -63.31584 3432 ft 227 kts 135°
2026-05-07 12:09 18.02423 -63.30474 3199 ft 215 kts 133°
2026-05-07 12:09 18.01724 -63.29192 2955 ft 201 kts 102°
2026-05-07 12:09 18.01645 -63.27762 2758 ft 193 kts 83°
2026-05-07 12:09 18.01861 -63.26406 2565 ft 184 kts 81°
2026-05-07 12:10 18.02059 -63.25126 2368 ft 170 kts 82°
2026-05-07 12:10 18.02227 -63.23959 2179 ft 155 kts 82°
2026-05-07 12:10 18.02384 -63.22853 2033 ft 153 kts 82°
2026-05-07 12:10 18.02543 -63.21741 1924 ft 154 kts 82°
2026-05-07 12:11 18.02703 -63.20622 1738 ft 155 kts 83°
2026-05-07 12:11 18.02855 -63.19561 1531 ft 141 kts 82°
2026-05-07 12:11 18.02994 -63.18595 1355 ft 130 kts 83°
2026-05-07 12:11 18.03124 -63.17679 1189 ft 126 kts 83°
2026-05-07 12:12 18.03255 -63.16750 1020 ft 131 kts 83°
2026-05-07 12:12 18.03391 -63.15793 846 ft 133 kts 83°
2026-05-07 12:12 18.03525 -63.14857 668 ft 127 kts 82°
2026-05-07 12:12 18.03654 -63.13950 493 ft 127 kts 81°
2026-05-07 12:13 18.03788 -63.13030 300 ft 127 kts 81°
2026-05-07 12:13 18.03918 -63.12111 100 ft 127 kts 81°
2026-05-07 12:13 18.04042 -63.11245 26 ft 99 kts 81°
2026-05-07 12:13 18.04111 -63.10757 26 ft 53 kts 81°
2026-05-07 12:14 18.04136 -63.10482 27 ft 13 kts 110°
2026-05-07 12:14 18.04153 -63.10448 27 ft 3 kts 335°
2026-05-07 12:14 18.04155 -63.10492 27 ft 12 kts 255°
2026-05-07 12:14 18.04134 -63.10596 27 ft 15 kts 261°
2026-05-07 12:15 18.04118 -63.10712 26 ft 18 kts 262°
2026-05-07 12:15 18.04096 -63.10868 26 ft 23 kts 261°
2026-05-07 12:15 18.04070 -63.11041 27 ft 25 kts 261°
2026-05-07 12:15 18.04046 -63.11209 27 ft 18 kts 261°
2026-05-07 12:16 18.04087 -63.11291 28 ft 14 kts 353°
2026-05-07 12:16 18.04167 -63.11303 27 ft 10 kts 350°
2026-05-07 12:16 18.04224 -63.11336 28 ft 10 kts 316°
2026-05-07 12:16 18.04291 -63.11358 28 ft 9 kts 349°
2026-05-07 12:17 18.04325 -63.11364 28 ft 2 kts 351°
2026-05-07 12:17 18.04327 -63.11364 28 ft 0 kts 351°